Weather History for Curtin, WE

Change the Weather History Date:

Monday, July 22, 2013

  Actual Average Record
Temperature  
Mean Temperature 78 °F -  
Max Temperature 91 °F - - ()
Min Temperature 64 °F - - ()
Cooling Degree Days 12    
Growing Degree Days 28 (Base 50)    
Moisture  
Dew Point 46 °F    
Average Humidity 34    
Maximum Humidity 64    
Minimum Humidity 18    
Precipitation  
Precipitation 0.00 in - - ()
Sea Level Pressure  
Sea Level Pressure 29.94 in    
Wind  
Wind Speed 8 mph ()    
Max Wind Speed 12 mph    
Max Gust Speed -    
T = Trace of Precipitation, MM = Missing Value Source: Averaged Metar Reports

Daily Weather History Graph

Daily Weather History Graph

Search for Another Location

Airport:

Trip Planner

Search our weather history database for the weather conditions in past years. The results will help you decide how hot, cold, wet, or windy it might be!

Date:

Astronomy

Jul. 22, 2013 Rise Set
Actual Time 6:14 AM AWST 5:28 PM AWST
Civil Twilight 5:51 AM AWST 5:51 PM AWST
Nautical Twilight 5:24 AM AWST 6:17 PM AWST
Astronomical Twilight 4:58 AM AWST 6:44 PM AWST
Moon 5:03 PM AWST (7/22) 5:18 AM AWST (7/22)
Length of Visible Light 12h 00m
Length of Day
11h 13m
Waxing Gibbous, 99% of the Moon is Illuminated
Jul 22
Waxing Gibbous
Jul 23
Full
Jul 30
Last Quarter
Aug 7
New
Aug 14
First Quarter

Hourly Weather History & Observations

Time (AWST) Temp. Heat Index Dew Point Humidity Pressure Visibility Wind Dir Wind Speed Gust Speed Precip Events Conditions
12:00 AM 70 °F - 40 °F 22% 29.91 in - SE 11.5 mph - -  
12:00 AM 69.8 °F - 39.2 °F 33% 29.92 in - SE 11.5 mph - N/A   Scattered Clouds
1:00 AM 68.0 °F - 39.2 °F 35% 29.89 in - SSE 9.2 mph - N/A   Scattered Clouds
2:00 AM 68.0 °F - 37.4 °F 33% 29.89 in - SE 9.2 mph - N/A   Scattered Clouds
3:00 AM 66 °F - 38 °F 24% 29.89 in - SE 9.2 mph - -  
3:00 AM 66.2 °F - 37.4 °F 35% 29.89 in - SE 9.2 mph - N/A   Scattered Clouds
4:00 AM 66.2 °F - 37.4 °F 35% 29.89 in - SE 10.4 mph - N/A   Scattered Clouds
5:00 AM 64.4 °F - 37.4 °F 37% 29.89 in - SE 9.2 mph - N/A   Scattered Clouds
6:00 AM 65 °F - 38 °F 26% 29.92 in - ESE 9.2 mph - -  
6:00 AM 64.4 °F - 37.4 °F 37% 29.92 in - ESE 9.2 mph - N/A   Scattered Clouds
7:00 AM 66.2 °F - 39.2 °F 37% 29.95 in - ESE 9.2 mph - N/A   Scattered Clouds
8:00 AM 71.6 °F - 42.8 °F 35% 29.98 in - East 9.2 mph - N/A   Unknown
9:00 AM 77 °F - 47 °F 23% 29.99 in - ENE 9.2 mph - -  
9:00 AM 77.0 °F - 46.4 °F 34% 29.98 in - ENE 9.2 mph - N/A   Scattered Clouds
10:00 AM 82.4 °F - 50.0 °F 32% 29.98 in - NE 10.4 mph - N/A   Unknown
11:00 AM 87.8 °F 85.7 °F 53.6 °F 31% 29.98 in - NE 8.1 mph - N/A   Unknown
12:00 PM 87 °F - 51 °F 19% 29.95 in - NE 9.2 mph - -  
12:00 PM 87.8 °F - 51.8 °F 29% 29.95 in - NE 9.2 mph - N/A   Unknown
1:00 PM 89.6 °F - 50.0 °F 26% 29.92 in - NE 6.9 mph - N/A   Unknown
2:00 PM 89.6 °F - 50.0 °F 26% 29.89 in - ENE 8.1 mph - N/A   Scattered Clouds
3:00 PM 87 °F - 50 °F 18% 29.89 in - NNE 5.8 mph - -  
3:00 PM 87.8 °F - 50.0 °F 27% 29.89 in - NNE 5.8 mph - N/A   Scattered Clouds
4:00 PM 89.6 °F - 50.0 °F 26% 29.89 in - NE 6.9 mph - N/A   Unknown
5:00 PM 86.0 °F 84.2 °F 53.6 °F 33% 29.92 in - WNW 6.9 mph - N/A   Scattered Clouds
6:00 PM 79 °F - 54 °F 32% 29.94 in - WNW 4.6 mph - -  
6:00 PM 78.8 °F - 53.6 °F 42% 29.92 in - WNW 4.6 mph - N/A   Scattered Clouds
7:00 PM 71.6 °F - 53.6 °F 53% 29.95 in - West 3.5 mph - N/A   Unknown
8:00 PM 75.2 °F - 55.4 °F 50% 30.01 in - SE 4.6 mph - N/A   Mostly Cloudy
9:00 PM 69 °F - 54 °F 50% 30.01 in - SE 2.3 mph - -  
9:00 PM 69.8 °F - 53.6 °F 56% 30.01 in - SE 2.3 mph - N/A   Scattered Clouds
10:00 PM 64.4 °F - 51.8 °F 64% 30.01 in - SSE 3.5 mph - N/A   Scattered Clouds
11:00 PM 73.4 °F - 44.6 °F 36% 30.01 in - SE 8.1 mph - N/A   Unknown